CALIPSO

导读

CALIPSO是由法国主导发射的科研卫星,于2006年4月28日8时成功进入太空,核心使命聚焦气溶胶和云层特性观测。它搭载高精度激光雷达等先进设备,可精准探测全球大气中气溶胶分布、云结构,帮助科学家研究气溶胶对气候系统的调节效应、云层辐射反馈机制,提升气候变化预测精度,是国际大气探测协作的重要成果,持续为地球气候研究提供关键观测数据,助力人类理解大气圈层相互作用。

基本信息
目录编号:
29108
目录名称:
CALIPSO
国际标识:
2006-016B
轨道中心:
EARTH
卫星名称:
CALIPSO
卫星全名:
--
卫星状态:
在轨 (已飞行7443 天)
发射日期:
2006-04-28 UTC
国别 :
法国 (FR)
星等 :
--
该卫星已列入 空间交会检测服务 Space Conjunction Data Service (SCDS) ,当前飞行风险评估等级: 无高风险
轨道信息
数据来源 国际轨道数据 AOE轨道数据
星历时间 2026-09-13T08:03:52+0800
6小时前
查看轨道信息
2026-09-11T02:00:00+0800
2天前
查看轨道信息
半长轴 7040.849km 7040.874km
偏心率 0.0001428 0.0001124
轨道倾角 98.447° 98.446°
近地点辐角 72.290° 70.131°
升交点赤经 274.667° 272.339°
平近点角 287.846° 260.013°
近地点 661.706km 661.945km
远地点 663.718km 663.529km
周期 97.993分钟 97.994分钟
每日圈数 14.694853 14.694774
详细信息
使用方式:
暂无
2D轨道图
3D轨道图
轨道高度分析图
轨道倾角分析图
轨道综合分析图
查看轨道综合分析图
与全量物体交会距离演化趋势
与全量物体交会风险概率演化趋势